Погода в Слободском

Россия / Нижегородская область     56°00′28″N   44°23′26″E
темп.,
°C
ветер,
м/с
пор.,
м/с
влажн.,
%
обл.,
%
осадки,
мм/ч
давл.,
гПа
погр.,
м
6 марта, сб
сб600:00−9зсз5995100 0.4 1011354
03:00−15зсз479265 0.4 101398
06:00−17зсз33920 0.0 101429
09:00−13зюз35910 0.0 1016180
12:00−9з36850 0.0 1015466
15:00−7з468838 0.1 1014685
18:00−11з339391 0.1 101325
21:00−14з129680 0.1 101320
7 марта, вс
вс700:00−13зюз229686 0.1 101220
03:00−16юз239878 0.1 101120
06:00−17ююз34936 0.0 100933
09:00−12ююз5109235 0.0 1007269
12:00−7ююз81385100 0.0 1004622
15:00−6ююз81391100 0.1 1001906
18:00−6ю61493100 0.6 996954
21:00−5ю81593100 1.3 992857
8 марта, пн
пн800:00−5зюз91590100 0.5 989830
03:00−8зюз91690100 1.4 9901058
06:00−8зюз91689100 0.5 991845
09:00−8зюз71390100 0.5 992614
12:00−6зюз6989100 0.1 993743
15:00−5з6984100 0.1 994972
18:00−8з6119199 0.1 996471
21:00−9з5109495 0.3 999309
9 марта, вт
вт900:00−11зсз489699 0.1 1001196
03:00−12сз499597 0.3 1004260
06:00−14сз489594 0.1 1006267
09:00−14сз589493 0.3 1009412
12:00−12сз5790100 0.1 1010645
15:00−11сз5788100 0.1 1012735
18:00−14сз4895100 0.1 1012241
21:00−18зсз4798100 0.1 1015123
10 марта, ср
ср1000:00−20зсз35100100 0.1 101694
03:00−23зсз33100100 0.1 101638
06:00−25зсз3310096 0.0 101730
09:00−23сз349784 0.0 1018181
12:00−18сз348883 0.0 1018408
15:00−17сз348892 0.0 1017514
18:00−22сз239769 0.0 101821
21:00−26зсз119434 0.0 101920